Regional Weather Roundup
Issued by NWS Charleston, WV

Home | Current Version | Previous Version | Text Only | Print | Product List | Glossary Off
Versions: 1 2 3 4 5 6 7 8 9 10 11 12 13 14 15 16 17 18 19 20 21 22 23 24 25 26 27 28 29 30 31 32 33 34 35 36 37 38 39 40 41 42 43 44 45 46 47 48 49 50

000
ASUS41 KRLX 091410
RWRRLX
West Virginia Regional Weather Roundup
National Weather Service Charleston WV
900 AM EST TUE FEB 09 2016

Note: "fair" indicates few or no clouds below 12,000 feet with no
significant weather and/or obstructions to visibility.

WVZ003-091500-
Northern Panhandle of West Virginia

CITY           SKY/WX    TMP DP  RH WIND       PRES   REMARKS
WHEELING       SNOW      29  26  89 W10G16    29.59R VSB 1/2
$$

WVZ009-091500-
Northwest West Virginia

CITY           SKY/WX    TMP DP  RH WIND       PRES   REMARKS
PARKERSBURG    LGT SNOW  24  20  84 W12G20    29.72R FOG
$$

WVZ006-091500-
Western West Virginia

CITY           SKY/WX    TMP DP  RH WIND       PRES   REMARKS
HUNTINGTON     PTSUNNY   23  12  62 SW7       29.77R
$$

WVZ015-091500-
West Central West Virginia

CITY           SKY/WX    TMP DP  RH WIND       PRES   REMARKS
CHARLESTON     LGT SNOW  25  19  78 VRB5      29.73R VSB 1
$$

WVZ022-031-091500-
North Central West Virginia

CITY           SKY/WX    TMP DP  RH WIND       PRES   REMARKS
CLARKSBURG     LGT SNOW  25  23  92 W10       29.64R VSB 3/4
MORGANTOWN     SNOW      25  21  85 SW9       29.62R VSB 1/2
$$

WVZ025-035-042-045-091500-
Southern West Virginia

CITY           SKY/WX    TMP DP  RH WIND       PRES   REMARKS
BECKLEY        CLOUDY    20  15  81 W9        29.63R WCI   9
LOGAN          LGT SNOW  23  19  86 W8        29.69S
BLUEFIELD      LGT SNOW  19  15  84 NW7       29.61R FOG     WCI  10
LEWISBURG      LGT SNOW  26  20  77 W7        29.61R
$$

WVZ047-091500-
Northern Mountains of West Virginia

CITY           SKY/WX    TMP DP  RH WIND       PRES   REMARKS
ELKINS         LGT SNOW  25  17  72 W10       29.61R
$$

WVZ052-091500-
Eastern Panhandle of West Virginia

CITY           SKY/WX    TMP DP  RH WIND       PRES   REMARKS
MARTINSBURG    SNOW      32  32 100 CALM      29.57R VSB 1/2
PETERSBURG     CLOUDY    34  24  66 CALM      29.59R
$$



USA.gov is the U.S. government's official web portal to all federal, state and local government web resources and services.